Tracking 31027 objects as of 19-Jul-2025
HD Live streaming from Space Station
objects crossing your sky now

USA 40 R/B DEB

Track USA 40 R/B DEB now!
10-day predictions


NORAD ID: 23379
Int'l Code: 1989-061BB
Perigee: 511.5 km
Apogee: 6,433.4 km
Inclination: 57.0 °
Period: 162.0 minutes
Semi major axis: 9843 km
RCS: Unknown
Launch date: August 8, 1989
Source: United States (US)
Launch site: AIR FORCE EASTERN TEST RANGE (AFETR)

Note: This is SATELLITE DEBRIS
Your satellite tracking list
MAROC TUBSAT
Track 1 satellite(s)




NASA's NSSDC Master Catalog

Two Line Element Set (TLE):
1 23379U 89061BB  25199.55366114  .00005543  00000-0  38695-2 0  9995
2 23379  56.9775  43.2141 3008013  31.0837 343.7456  8.88955567202701
Source of the keplerian elements: AFSPC